User: anonymous   Login
Location: Sperry Observatory
(40.6664°N, 74.3236°W)
Time: 21:23:14
(UTC-04:00)
Language:

JAS-2 - Orbit

View from above orbital plane
View from above orbital plane
View from above satellite
View from above satellite

Ground track
Ground track

The orbit data is extracted from the following two-line orbital elements,

1 24278U 96046B   16241.93320097 -.00000035 +00000-0 +42961-6 0  9992
2 24278 098.5829 157.6239 0350815 014.4479 346.6387 13.53070543989093
Epoch (UTC): 28 August 2016 22:23:48
Eccentricity: 0.0350815
inclination: 98.5829°
perigee height: 800 km
apogee height: 1322 km
right ascension of ascending node: 157.6239°
argument of perigee: 14.4479°
revolutions per day: 13.53070543
mean anomaly at epoch: 346.6387°
orbit number at epoch: 98909

The dashed part of the orbit path shows where the satellite is in the earth's shadow,  

DLR